Santa Ana, CA

1:25 AM PST on February 11, 2016 (GMT -0800)
John Wayne-Orange County

Weather History for KSNA - October, 2011

Change the Weather History Date:

Wednesday, October 12, 2011

  Actual Average Record
Temperature  
Mean Temperature 80 °F 68 °F  
Max Temperature 99 °F 76 °F 99 °F (2011)
Min Temperature 61 °F 59 °F 51 °F (2008)
Degree Days  
Heating Degree Days 0 0  
Month to date heating degree days 10 0  
Since 1 July heating degree days 10 1  
Cooling Degree Days 15 3  
Month to date cooling degree days 46 43  
Year to date cooling degree days 769 811  
Growing Degree Days 30 (Base 50)    
Moisture  
Dew Point 55 °F    
Average Humidity 52    
Maximum Humidity 84    
Minimum Humidity 20    
Precipitation  
Precipitation 0.00 in 0.02 in 0.03 in (2007)
Month to date precipitation 0.68 0.16  
Year to date precipitation 6.13 9.41  
Since 1 July precipitation 0.78  
Snow  
Snow 0.00 in - - ()
Month to date snowfall 0.0  
Year to date snowfall 0.0  
Snow Depth 0.00 in    
Sea Level Pressure  
Sea Level Pressure 29.81 in    
Wind  
Wind Speed 2 mph (WSW)    
Max Wind Speed 9 mph    
Max Gust Speed 13 mph    
Visibility 9 miles    
Events      
T = Trace of Precipitation, MM = Missing Value Source: NWS Daily Summary

Daily Weather History Graph

Daily Weather History Graph

Search for Another Location

Airport or City:

Trip Planner

Search our weather history database for the weather conditions in past years. The results will help you decide how hot, cold, wet, or windy it might be!

Date:

Astronomy

Oct. 12, 2011 Rise Set
Actual Time 6:53 AM PDT 6:21 PM PDT
Civil Twilight 6:28 AM PDT 6:46 PM PDT
Nautical Twilight 5:59 AM PDT 7:15 PM PDT
Astronomical Twilight 5:31 AM PDT 7:44 PM PDT
Moon 6:32 PM PDT (10/12) 7:28 AM PDT (10/12)
Length of Visible Light 12h 17m
Length of Day
11h 27m
Full, 100% of the Moon is Illuminated
Oct 12
Full
Oct 19
Last Quarter
Oct 26
New
Nov 2
First Quarter
Nov 10
Full

Hourly Weather History & Observations

Time (PDT) Temp. Heat Index Dew Point Humidity Pressure Visibility Wind Dir Wind Speed Gust Speed Precip Events Conditions
12:53 AM 64.9 °F - 57.9 °F 78% 29.85 in 9.0 mi Calm Calm - N/A   Clear
1:53 AM 64.9 °F - 57.9 °F 78% 29.85 in 9.0 mi Calm Calm - N/A   Clear
2:53 AM 64.0 °F - 55.9 °F 75% 29.83 in 10.0 mi Calm Calm - N/A   Clear
3:53 AM 63.0 °F - 55.9 °F 78% 29.83 in 9.0 mi Calm Calm - N/A   Clear
4:53 AM 63.0 °F - 57.0 °F 81% 29.83 in 9.0 mi Calm Calm - N/A   Clear
5:53 AM 62.1 °F - 57.0 °F 84% 29.83 in 8.0 mi Calm Calm - N/A   Clear
7:53 AM 64.9 °F - 55.9 °F 73% 29.85 in 7.0 mi Calm Calm - N/A   Clear
8:53 AM 70.0 °F - 55.9 °F 61% 29.88 in 6.0 mi Calm Calm - N/A   Haze
9:53 AM 75.0 °F - 57.9 °F 55% 29.87 in 6.0 mi Calm Calm - N/A   Haze
10:53 AM 81.0 °F 81.1 °F 57.9 °F 45% 29.85 in 7.0 mi Calm Calm - N/A   Clear
11:53 AM 87.1 °F 85.9 °F 57.0 °F 36% 29.83 in 8.0 mi Variable 3.5 mph - N/A   Clear
12:53 PM 93.9 °F 92.2 °F 55.9 °F 28% 29.81 in 10.0 mi West 3.5 mph - N/A   Clear
1:53 PM 98.1 °F 96.4 °F 55.0 °F 24% 29.78 in 10.0 mi WSW 4.6 mph - N/A   Clear
2:53 PM 98.1 °F - 52.0 °F 21% 29.76 in 10.0 mi Variable 5.8 mph - N/A   Clear
3:53 PM 97.0 °F - 48.0 °F 19% 29.76 in 10.0 mi West 8.1 mph - N/A   Clear
4:53 PM 96.1 °F - 48.9 °F 20% 29.76 in 10.0 mi WSW 6.9 mph - N/A   Clear
5:53 PM 91.9 °F - 48.9 °F 23% 29.76 in 10.0 mi SW 4.6 mph - N/A   Clear
6:53 PM 86.0 °F 84.0 °F 53.1 °F 32% 29.77 in 10.0 mi SW 3.5 mph - N/A   Clear
7:53 PM 82.0 °F 81.3 °F 54.0 °F 38% 29.79 in 10.0 mi Calm Calm - N/A   Clear
8:53 PM 81.0 °F 80.7 °F 55.0 °F 41% 29.80 in 10.0 mi Calm Calm - N/A   Clear
9:53 PM 78.1 °F - 55.9 °F 46% 29.81 in 10.0 mi Calm Calm - N/A   Clear
10:53 PM 75.9 °F - 55.9 °F 50% 29.82 in 10.0 mi Calm Calm - N/A   Clear
11:53 PM 73.0 °F - 57.0 °F 57% 29.82 in 10.0 mi Calm Calm - N/A   Clear